Regional Weather Roundup
Issued by NWS

Home | Current Version | Previous Version | Text Only | Print | Product List | Glossary Off
Versions: 1 2 3 4 5 6 7 8 9 10 11 12 13 14 15 16 17 18 19 20 21 22 23 24 25 26 27 28 29 30 31 32 33 34 35 36 37 38 39 40 41 42 43 44 45 46 47 48 49 50

000
ASUS43 KLMK 152110
RWRKY
KENTUCKY REGIONAL WEATHER ROUNDUP
NATIONAL WEATHER SERVICE LOUISVILLE KY
400 PM EST FRI DEC 15 2017

NOTE "FAIR" INDICATES FEW OR NO CLOUDS BELOW 12,000 FEET
WITH NO SIGNIFICANT WEATHER AND/OR OBSTRUCTIONS TO VISIBILITY.

KYZ001>023-026-027-061>063-070>075-152200-
WESTERN AND SOUTH CENTRAL KENTUCKY

CITY           SKY/WX    TMP DP  RH WIND       PRES   REMARKS
PADUCAH        CLOUDY    45  24  43 W9        30.11S
HENDERSON      CLOUDY    40  25  55 SW12      30.09S WCI  33
OWENSBORO      CLOUDY    39  24  55 SW10      30.10R WCI  32
HOPKINSVILLE   SUNNY     42  22  43 SW13      30.11R
BOWLING GREEN    N/A     40  23  50 SW10      30.11S WCI  33
GLASGOW        CLOUDY    39  22  50 SW8       30.11R WCI  34
$$

KYZ024-025-028>034-038-045-046-053-152200-
NORTH CENTRAL KENTUCKY

CITY           SKY/WX    TMP DP  RH WIND       PRES   REMARKS
LOUISVILLE/SDF CLOUDY    37  22  54 SW13      30.06R WCI  29
LOUISVILLE/LOU CLOUDY    37  23  56 SW8       30.07R WCI  31
FORT KNOX      CLOUDY    36  21  54 W10       30.05R WCI  28
$$

KYZ035>037-039>044-047>052-055>060-089>105-152200-
NORTHEAST KENTUCKY

CITY           SKY/WX    TMP DP  RH WIND       PRES   REMARKS
LEXINGTON      CLOUDY    35  21  56 SW10      30.04S WCI  27
COVINGTON      CLOUDY    32  22  66 W10       30.00R WCI  24
FRANKFORT      CLOUDY    36  20  52 SW7       30.04R WCI  30
$$

KYZ054-064>069-076>088-106>120-152200-
SOUTHEAST KENTUCKY

CITY           SKY/WX    TMP DP  RH WIND       PRES   REMARKS
JACKSON        MOSUNNY   31  19  61 MISG      30.04S
LONDON         MOSUNNY   32  19  58 W8        30.08R WCI  25
SOMERSET       CLOUDY    34  19  55 W6        30.10S WCI  29
MIDDLESBORO    CLOUDY    34  21  58 NW5       30.09S WCI  30
MONTICELLO     CLEAR     35  21  56 SW13      30.11F WCI  26
$$





USA.gov is the U.S. government's official web portal to all federal, state and local government web resources and services.